Regional Weather Roundup
Issued by NWS Wakefield, VA

Home | Current Version | Previous Version | Text Only | Print | Product List | Glossary Off
Versions: 1 2 3 4 5 6 7 8 9 10 11 12 13 14 15 16 17 18 19 20 21 22 23 24 25 26 27 28

000
ASUS41 KAKQ 181310
RWRAKQ

REGIONAL WEATHER ROUNDUP
NATIONAL WEATHER SERVICE WAKEFIELD VA
900 AM EDT FRI APR 18 2014

Note: "fair" indicates few or no clouds below 12,000 feet with no
significant weather and/or obstructions to visibility. * = Denotes
station may not report precipitation (e.g., rain,snow,etc.),
thunder or fog.

VAZ042-051-052>054-056-181400-
NORTHERN VIRGINIA

CITY           SKY/WX    TMP DP  RH WIND       PRES   REMARKS
WASH NATIONAL  CLOUDY    43  32  65 NE6       30.51S
DULLES         CLOUDY    38  31  76 CALM      30.49F
FORT BELVOIR   PTSUNNY   41  32  70 VRB1      30.52R
QUANTICO       CLOUDY    42  32  67 E9        30.52R
FREDERICKSBRG* CLOUDY    43  36  75 N6        30.50S
STAFFORD*      CLOUDY    42  35  78 E7        30.54S
WARRENTON      PTSUNNY   40  38  90 E3        30.50R
CULPEPER*      CLOUDY    43  34  70 SE3       30.51R
MANASSAS*      SUNNY     39  36  87 CALM      30.50S
LEESBURG*      CLOUDY    39  34  81 NE5       30.50S
WINCHESTER     PTSUNNY   37  34  87 E3        30.46S
$$

VAZ048-049-060>072-079>083-181400-
CENTRAL AND SOUTH CENTRAL VIRGINIA...AND NORTH CENTRAL NORTH CAROLINA

CITY           SKY/WX    TMP DP  RH WIND       PRES   REMARKS
RICHMOND       CLOUDY    39  33  79 NE10      30.49F
CHESTERFIELD*  NOT AVBL
HANOVER        CLOUDY    40  34  79 E7        30.51S
TAPPAHANNOCK*  CLOUDY    42  31  66 N7        30.49S
CHARLOTTSVILLE CLOUDY    40  34  79 CALM      30.48R
ORANGE*        CLOUDY    37  34  87 E3        30.51R
LOUISA*        CLOUDY    39  34  81 NE3       30.48R
FARMVILLE*     CLOUDY    39  37  93 NE3       30.48R
SOUTH HILL*    MOSUNNY   43  37  81 N8        30.51S
ROANOKE RAPIDS MOSUNNY   45  39  81 N12       30.45F
RALEIGH        PTSUNNY   43  36  76 NE8       30.44S
$$

VAZ088>098-181400-
SOUTHEAST VIRGINIA

CITY           SKY/WX    TMP DP  RH WIND       PRES   REMARKS
NORFOLK        CLOUDY    44  37  76 NE15      30.46S
VIRGINIA BEACH PTSUNNY   46  37  71 NE14      30.45S
NORFOLK NAVAL  CLOUDY    45  36  70 NE14      30.48S
WEST POINT*    CLOUDY    45  34  65 N7        30.50F
NEWPORT NEWS   CLOUDY    47  36  65 NE8G20    30.47F
LANGLEY AFB    CLOUDY    44  38  79 E16       30.48S
FORT EUSTIS    CLOUDY    45  38  75 NE8       30.45F
WILLIAMSBURG*    N/A     46  37  71 NE3       30.48F
FRANKLIN*      CLOUDY    46  39  76 NE8       30.46S
WAKEFIELD      CLOUDY    44  35  70 VRB6      30.47S
$$

VAZ020-022-025-037-045-181400-
WESTERN AND SOUTHWEST VIRGINIA

CITY           SKY/WX    TMP DP  RH WIND       PRES   REMARKS
STAUNTON*      CLOUDY    38  33  83 CALM      30.46R
HOT SPRINGS VA PTSUNNY   39  30  70 W10       30.40S
LYNCHBURG      CLOUDY    45  35  68 NE7       30.47R
DANVILLE       PTSUNNY   43  35  73 NE8       30.47R
MARTINSVILLE   CLOUDY    42  37  84 NE3       30.47S
ROANOKE        CLOUDY    41  34  76 SE5       30.46S
BLACKSBURG     PTSUNNY   39  37  93 SE3       30.42F
DUBLIN*        PTSUNNY   38  35  90 CALM      30.42S
MARION*        CLOUDY    41  30  64 E3        30.41S
HILLSVILLE*    CLOUDY    39  32  75 CALM      30.40S
RICHLANDS*     CLOUDY    51  12  21 SE3       30.35S
WISE*          CLOUDY    52  23  32 SW5       30.35F
ABINGDON*      CLOUDY    49  26  41 E8        30.36S
$$

MDZ021>025-VAZ099-100-181400-
SOUTHERN MARYLAND AND THE DELMARVA PENINSULA

CITY           SKY/WX    TMP DP  RH WIND       PRES   REMARKS
PATUXENT RIVER CLOUDY    42  32  67 NE8       30.50R
BAY BRIDGE APT PTSUNNY   41  32  70 NE6       30.51
LEONARDTOWN    CLOUDY    41  32  70 CALM      30.51R
DOVER          CLOUDY    42  34  75 NE8       30.47F
GEORGETOWN     CLOUDY    44  33  65 NE14      30.50F
EASTON         CLOUDY    43  36  75 E7        30.53F
CAMBRIDGE      PTSUNNY   43  32  65 E6        30.49S
SALISBURY      CLOUDY    45  35  68 NE12      30.48F
OCEAN CITY     CLOUDY    44  35  70 NE12      30.49S
WALLOPS ISLAND CLOUDY    47  38  71 NE10      30.48S
ACCOMACK*      CLOUDY    43  34  70 NE8       30.47S
$$

NCZ012>017-030>032-181400-
EASTERN NORTH CAROLINA

CITY           SKY/WX    TMP DP  RH WIND       PRES   REMARKS
ELIZABETH CITY CLOUDY    46  39  76 NE18      30.43S
AHOSKIE*       MOSUNNY   44  37  77 NE7       30.45S
EDENTON*       CLOUDY    46  40  82 N9        30.43R
CURRITUCK*     CLOUDY    47  38  73 N15G21    30.44S
KILL DEVIL HLS CLOUDY    46  43  88 N10G21    30.40S
MANTEO         CLOUDY    46  42  88 NE21G26   30.40F
CAPE HATTERAS  CLOUDY    48  45  89 NE18G29   30.37R
GOLDSBORO      PTSUNNY   45  40  82 NE9       30.40S
WASHINGTON     CLOUDY    44  40  85 N9        30.42S
GREENVILLE     MOSUNNY   45  39  81 NE12G17   30.41F
NEW BERN       CLOUDY    49  43  80 N9        30.39F
WILMINGTON     PTSUNNY   50  41  71 N10       30.35F
$$

VAZ048-181400-
ELSEWHERE

CITY           SKY/WX    TMP DP  RH WIND       PRES   REMARKS
HARRISBURG PA  CLOUDY    40  29  64 E7        30.50F
BALTIMORE      PTSUNNY   41  31  67 E7        30.50S
ANNAPOLIS      CLOUDY    41  33  73 E8        30.51S
ANDREWS AFB    CLOUDY    40  31  69 E5        30.50R
WILMINGTON DE  CLOUDY    41  30  65 E8        30.52F
PHILADELPHIA   CLOUDY    42  28  57 E8        30.53F
WILDWOOD NJ*   CLOUDY    41  30  65 NE9       30.51F
ATLANTIC CITY  CLOUDY    41  32  70 NE9       30.52S
HENDERSON NC   PTSUNNY   41  36  83 NE9       30.45S
GREENSBORO     CLOUDY    42  35  76 NE12      30.42F
ROCKY MOUNT      N/A    N/A N/A N/A MISG      30.43F
FAYETTEVILLE   MOSUNNY   47  38  71 NE13      30.40R
CHARLOTTE      CLOUDY    47  39  74 NE9       30.39F
$$

VAZ100-181400-
MARINE

STATION/POSITION TIME  TEMP    WIND        PRES    WAVE   SWELL
                       AIR SEA DIR/SP/G            HT/PER HT/PER
                 (UTC) (F)     (DEG/KT/KT) (MB)    (FT/S) (FT/S)
44066 TX TWR #4  1300   40 44   30/ 12/ 14 1032.9R   8/ 9   7/ 9
CAPE MAY NJ      1300   41 51   70/  9/ 13 1032.8F
LEWES DE         1300   42 47   60/ 14/ 15 1032.2F
15NM E FENWICK I 1300   42 45              1032.2S   7/10
OCEAN-CITY-INLET 1300   43 45   30/  8/ 11 1031.9F
WACHAPREAGUE VA  1300   43 50   40/  9/ 13 1031.4F
THOMAS POINT MD  1300   40 52   30/  8/  9 1033.6R
GOOSES REEF MD   1300   41     100/ 10/ 12 1034.3R
COVE POINT MD    1300   40      80/  7/  8 1032.5S
SOLOMONS ISLAND  1300      52                N/A
BISHOPS HEAD MD  1300   42 50   50/ 10/ 13 1032.0R
PINEY POINT MD   1300           60/  6/  9   N/A
POTOMAC MD       1300   41      50/ 10/ 12 1031.8R
CAMBRIDGE MD     1300   42 55   50/ 11/ 14 1032.0F
LEWISETTA VA     1300   42 54   50/  7/ 11 1032.3F
RAPPAHANNOCK LGT 1300           40/ 13/ 13 1032.3S
STINGRAY PT      1300   43      70/ 12/ 14 1031.9S
YORK RVR RNG VA  1300   44      40/ 15/ 18 1030.8F
YORKTOWN VA      1300   44 54   60/ 11/ 16 1031.5F
JAMESTOWN VA     1300   42      70/  6/  8   N/A
DOMINION TERM VA 1300   44      50/  8/ 12 1031.6R
KIPTOPEKE VA     1300      51   30/  7/ 13   N/A
CHES BAY BRIDGE  1300   43 51   20/ 12/ 15 1031.2R
CAPE HENRY VA    1300   43      20/ 14/ 17   N/A
CHESAPEAKE LGHT  1200   44      40/ 18/ 21 1031.2F
WILLOUBY STN VA  1300   42      30/ 15/ 18 1030.8R
S CRANEY ISL VA  1300           10/ 13/ 16 1031.6R
CAPE HENRY BUOY  1300      47                N/A     6/ 9   2/11
1ST LANDING BUOY 1300      45                N/A     6/11   5/11
64NM E OF VA BCH 1300   47 49   10/ 19/ 21 1028.8F  10/ 9   8/ 9
DUCK PIER NC     1300   45 51   10/ 16/ 22 1029.1R
44100 DUCK FRF   1300      47                N/A     8/12   3/12
44056 DUCK FRF   1200      49                N/A     7/10   3/11
OREGON INLET NC  1300   46 50  360/ 19/ 24 1028.7F
HATTERAS NC      1300   49 55   20/ 22/ 27 1028.5R
CAPE LOOKOUT NC  1200   51      10/ 14/ 17 1027.5R
FRYING PAN SHLS  1300   57 64   50/ 23/ 25 1025.4R   7/ 6   3/10
$$



USA.gov is the U.S. government's official web portal to all federal, state and local government web resources and services.